Regional Weather Roundup
Issued by NWS Sioux Falls, SD

Home | Current Version | Previous Version | Text Only | Print | Product List | Glossary Off
Versions: 1 2 3 4 5 6 7 8 9 10 11 12 13 14 15 16 17 18 19 20 21 22 23 24 25 26 27 28 29 30 31 32 33 34 35 36 37 38 39 40 41 42 43 44 45 46 47 48 49 50

216
ASUS43 KFSD 292202
RWRFSD

WEATHER ROUNDUP FOR SE SOUTH DAKOTA/SW MINNESOTA/NW IOWA
NATIONAL WEATHER SERVICE SIOUX FALLS SD
500 PM CDT FRI APR 29 2016

NOTE: "FAIR" INDICATES FEW OR NO CLOUDS BELOW 12,000 FEET WITH NO
SIGNIFICANT WEATHER AND OR OBSTRUCTIONS TO VISIBILITY.


SDZ038>040-050-052>070-292300-
SOUTHEAST SOUTH DAKOTA

CITY           SKY/WX    TMP DP  RH WIND       PRES   REMARKS
BROOKINGS      CLOUDY    49  38  65 E10       30.10F
CHAMBERLAIN    NOT AVBL
HURON          CLOUDY    50  39  66 SE12      30.11F
MADISON        MOCLDY    48  41  76 E12       30.10F
MITCHELL       CLOUDY    51  42  71 E8        30.09F
SIOUX FALLS    CLOUDY    51  40  65 E7        30.08F
WINNER         CLOUDY    45  38  76 NE8       30.05F
YANKTON        CLOUDY    45  39  81 E9        30.07F
$$

MNZ071-072-080-081-089-090-097-098-292300-
SOUTHWEST MINNESOTA

CITY           SKY/WX    TMP DP  RH WIND       PRES   REMARKS
FAIRMONT       CLOUDY    52  36  54 E9        30.10F
JACKSON        CLOUDY    50  37  62 SE6       30.11F
LUVERNE        CLOUDY    50  36  57 E9        30.09F
MARSHALL       CLOUDY    52  39  61 SE9       30.12F
MONTEVIDEO     CLOUDY    55  39  54 SE7       30.14S
PIPESTONE      CLOUDY    50  37  62 E6        30.09F
REDWOOD FALLS  CLOUDY    54  38  54 E7        30.12R
TRACY          CLOUDY    53  42  65 E7        30.11F
WINDOM         CLOUDY    54  39  58 CALM      30.10F
WORTHINGTON    CLOUDY    49  39  68 NE12      30.09F
$$

IAZ001>003-012>014-020>022-031-032-NEZ013-014-SDZ071-292300-
NORTHWEST IOWA

CITY           SKY/WX    TMP DP  RH WIND       PRES   REMARKS
CHEROKEE       CLOUDY    46  41  84 NE8       30.09F
DENISON        CLOUDY    46  41  81 E12G17    30.05S
ESTHERVILLE    CLOUDY    50  41  71 E12       30.09F
SIOUX CITY     CLOUDY    48  40  73 E12       30.07F
SPENCER        CLOUDY    50  38  63 E14       30.10S
STORM LAKE     CLOUDY    45  41  87 E13       30.08F
$$

ABBREVIATIONS USED IN REMARKS
   TC - TEMPERATURE IN CELSIUS
  WCI - WIND CHILL INDEX
   HX - HEAT INDEX
  VSB - VISIBILITY





USA.gov is the U.S. government's official web portal to all federal, state and local government web resources and services.